Change the Weather History Date:

Sunday, October 14, 2012

  Actual Average Record
Temperature  
Mean Temperature 50 °F -  
Max Temperature 62 °F 63 °F 83 °F (1968)
Min Temperature 37 °F 41 °F 26 °F (1952)
Degree Days  
Heating Degree Days 16    
Moisture  
Dew Point 48 °F    
Average Humidity 91    
Maximum Humidity 100    
Minimum Humidity 76    
Precipitation  
Precipitation 2.05 in - - ()
Sea Level Pressure  
Sea Level Pressure 29.68 in    
Wind  
Wind Speed 9 mph (NNW)    
Max Wind Speed 24 mph    
Max Gust Speed 32 mph    
Visibility 7 miles    
Events Rain    
Averages and records for this station are not official NWS values.
T = Trace of Precipitation, MM = Missing Value Source: NWS Daily Summary

Daily Weather History Graph

Daily Weather History Graph

Search for Another Location

Airport or City:

Trip Planner

Search our weather history database for the weather conditions in past years. The results will help you decide how hot, cold, wet, or windy it might be!

Date:

Astronomy

Oct. 14, 2012 Rise Set
Actual Time 7:20 AM CDT 6:26 PM CDT
Civil Twilight 6:52 AM CDT 6:54 PM CDT
Nautical Twilight 6:19 AM CDT 7:27 PM CDT
Astronomical Twilight 5:46 AM CDT 8:00 PM CDT
Moon 6:19 AM CDT (10/14) 5:46 PM CDT (10/14)
Length of Visible Light 12h 02m
Length of Day
11h 05m
Waning Crescent, 1% of the Moon is Illuminated
Oct 14
Waning Crescent
Oct 15
New
Oct 21
First Quarter
Oct 29
Full
Nov 6
Last Quarter

Hourly Weather History & Observations

Time (CDT) Temp. Windchill Dew Point Humidity Pressure Visibility Wind Dir Wind Speed Gust Speed Precip Events Conditions
12:33 AM 62.6 °F - 60.8 °F 94% 29.66 in 2.5 mi SE 3.5 mph - 0.07 in   Light Drizzle
12:35 AM 62.6 °F - 60.8 °F 94% 29.66 in 2.5 mi SE 3.5 mph - 0.07 in   Light Drizzle
12:53 AM 62.6 °F - 60.8 °F 94% 29.66 in 3.0 mi SSE 8.1 mph - 0.07 in   Overcast
12:55 AM 62.6 °F - 60.8 °F 94% 29.66 in 3.0 mi SSE 6.9 mph - 0.07 in   Overcast
1:13 AM 62.6 °F - 60.8 °F 94% 29.65 in 4.0 mi SSE 6.9 mph - N/A   Overcast
1:15 AM 62.6 °F - 60.8 °F 94% 29.65 in 4.0 mi SSE 6.9 mph - N/A   Overcast
1:33 AM 62.6 °F - 60.8 °F 94% 29.65 in 5.0 mi South 10.4 mph 18.4 mph 0.01 in Rain Light Rain
1:35 AM 62.6 °F - 60.8 °F 94% 29.65 in 5.0 mi South 9.2 mph 18.4 mph 0.01 in Rain Light Rain
1:55 AM 62.6 °F - 60.8 °F 94% 29.65 in 7.0 mi SSW 8.1 mph - 0.03 in Rain Light Rain
2:13 AM 62.6 °F - 60.8 °F 94% 29.65 in 7.0 mi SSW 5.8 mph - 0.02 in Rain Rain
2:15 AM 60.8 °F - 59.0 °F 94% 29.65 in 7.0 mi SSW 5.8 mph - 0.03 in Rain Rain
2:33 AM 62.6 °F - 60.8 °F 94% 29.65 in 10.0 mi SW 3.5 mph - 0.04 in Rain Light Rain
2:35 AM 60.8 °F - 59.0 °F 94% 29.65 in 10.0 mi Calm Calm - 0.04 in Rain Light Rain
2:53 AM 62.6 °F - 60.8 °F 94% 29.64 in 7.0 mi Calm Calm - 0.06 in Rain Light Rain
2:55 AM 60.8 °F - 59.0 °F 94% 29.64 in 7.0 mi Calm Calm - 0.06 in Rain Light Rain
3:13 AM 60.8 °F - 59.0 °F 94% 29.63 in 10.0 mi WNW 3.5 mph - N/A Rain Light Rain
3:15 AM 60.8 °F - 59.0 °F 94% 29.63 in 10.0 mi WNW 3.5 mph - N/A Rain Light Rain
3:33 AM 60.8 °F - 59.0 °F 94% 29.63 in 10.0 mi NW 4.6 mph - 0.01 in Rain Light Rain
3:35 AM 60.8 °F - 59.0 °F 94% 29.62 in 10.0 mi NW 5.8 mph - 0.01 in Rain Light Rain
3:54 AM 60.8 °F - 57.2 °F 88% 29.62 in 7.0 mi NW 4.6 mph - 0.03 in Rain Rain
3:55 AM 59.0 °F - 57.2 °F 94% 29.62 in 7.0 mi NW 4.6 mph - 0.03 in Rain Rain
4:13 AM 60.8 °F - 57.2 °F 88% 29.60 in 7.0 mi NNW 3.5 mph - 0.02 in Rain Light Rain
4:15 AM 59.0 °F - 57.2 °F 94% 29.60 in 7.0 mi Calm Calm - 0.02 in Rain Light Rain
4:33 AM 59.0 °F - 57.2 °F 94% 29.59 in 5.0 mi Calm Calm - 0.04 in Rain Rain
4:35 AM 59.0 °F - 57.2 °F 94% 29.59 in 5.0 mi Calm Calm - 0.05 in Rain Rain
4:54 AM 59.0 °F - 57.2 °F 94% 29.57 in 5.0 mi Calm Calm - 0.07 in Rain Light Rain
4:55 AM 59.0 °F - 55.4 °F 88% 29.57 in 5.0 mi Calm Calm - 0.07 in Rain Light Rain
5:14 AM 59.0 °F - 57.2 °F 94% 29.56 in 7.0 mi North 4.6 mph - 0.01 in Rain Light Rain
5:15 AM 59.0 °F - 55.4 °F 88% 29.56 in 7.0 mi North 4.6 mph - 0.01 in Rain Light Rain
5:34 AM 59.0 °F - 57.2 °F 94% 29.54 in 4.0 mi North 8.1 mph - 0.04 in Rain Rain
5:35 AM 59.0 °F - 55.4 °F 88% 29.54 in 4.0 mi North 8.1 mph - 0.04 in Rain Rain
5:54 AM 59.0 °F - 57.2 °F 94% 29.54 in 4.0 mi ENE 4.6 mph - 0.10 in Rain Rain
6:13 AM 59.0 °F - 57.2 °F 94% 29.54 in 3.0 mi NNE 3.5 mph - 0.09 in Rain Heavy Rain
6:15 AM 59.0 °F - 55.4 °F 88% 29.54 in 3.0 mi North 3.5 mph - 0.09 in Rain Heavy Rain
6:33 AM 59.0 °F - 57.2 °F 94% 29.53 in 4.0 mi North 9.2 mph - 0.21 in Rain Heavy Rain
6:35 AM 59.0 °F - 55.4 °F 88% 29.53 in 4.0 mi North 8.1 mph - 0.22 in Rain Heavy Rain
6:54 AM 59.0 °F - 57.2 °F 94% 29.53 in 4.0 mi North 9.2 mph - 0.33 in Rain Rain
6:55 AM 59.0 °F - 55.4 °F 88% 29.53 in 4.0 mi North 9.2 mph - 0.33 in Rain Rain
7:13 AM 59.0 °F - 57.2 °F 94% 29.52 in 5.0 mi North 12.7 mph - 0.08 in Rain Rain
7:15 AM 59.0 °F - 55.4 °F 88% 29.52 in 7.0 mi North 13.8 mph - 0.08 in Rain Rain
7:33 AM 59.0 °F - 57.2 °F 94% 29.52 in 3.0 mi North 13.8 mph - 0.19 in Rain Heavy Rain
7:35 AM 59.0 °F - 55.4 °F 88% 29.52 in 3.0 mi North 13.8 mph - 0.19 in Rain Rain
7:53 AM 55.4 °F - 55.4 °F 100% 29.52 in 3.0 mi North 16.1 mph 27.6 mph 0.31 in Rain Rain
7:55 AM 55.4 °F - 53.6 °F 94% 29.52 in 3.0 mi North 17.3 mph 27.6 mph 0.31 in Rain Light Rain
8:13 AM 53.6 °F - 51.8 °F 94% 29.53 in 3.0 mi North 16.1 mph 23.0 mph 0.11 in Rain Rain
8:15 AM 51.8 °F - 50.0 °F 94% 29.53 in 3.0 mi North 13.8 mph 23.0 mph 0.12 in Rain Rain
8:34 AM 53.6 °F - 51.8 °F 94% 29.54 in 3.0 mi NNE 10.4 mph 19.6 mph 0.26 in Rain Heavy Rain
8:35 AM 51.8 °F - 50.0 °F 94% 29.54 in 3.0 mi NNE 11.5 mph 19.6 mph 0.26 in Rain Heavy Rain
8:53 AM 51.8 °F - 51.8 °F 100% 29.54 in 3.0 mi North 10.4 mph - 0.44 in Rain Heavy Rain
8:55 AM 51.8 °F - 50.0 °F 94% 29.54 in 3.0 mi North 10.4 mph - 0.44 in Rain Heavy Rain
9:13 AM 51.8 °F - 50.0 °F 94% 29.54 in 4.0 mi North 17.3 mph 21.9 mph 0.09 in Rain Rain
9:15 AM 51.8 °F - 50.0 °F 94% 29.54 in 4.0 mi North 17.3 mph 21.9 mph 0.10 in Rain Rain
9:33 AM 51.8 °F - 48.2 °F 88% 29.54 in 4.0 mi North 20.7 mph 25.3 mph 0.20 in Rain Rain
9:35 AM 50.0 °F - 48.2 °F 94% 29.54 in 4.0 mi NNW 17.3 mph 25.3 mph 0.20 in Rain Rain
9:54 AM 51.8 °F - 48.2 °F 88% 29.54 in 5.0 mi North 19.6 mph 23.0 mph 0.29 in Rain Light Rain
9:55 AM 50.0 °F - 48.2 °F 94% 29.54 in 5.0 mi North 19.6 mph 23.0 mph 0.29 in Rain Light Rain
10:13 AM 50.0 °F - 48.2 °F 94% 29.55 in 7.0 mi NNW 16.1 mph 24.2 mph 0.07 in Rain Rain
10:15 AM 50.0 °F - 48.2 °F 94% 29.55 in 7.0 mi North 16.1 mph 24.2 mph 0.07 in Rain Light Rain
10:33 AM 48.2 °F - 48.2 °F 100% 29.56 in 5.0 mi North 21.9 mph 28.8 mph 0.12 in Rain Light Rain
10:35 AM 48.2 °F - 46.4 °F 93% 29.56 in 4.0 mi North 20.7 mph 28.8 mph 0.12 in Rain Light Rain
10:53 AM 48.2 °F - 46.4 °F 93% 29.57 in 5.0 mi North 21.9 mph 28.8 mph 0.16 in Rain Light Rain
10:55 AM 48.2 °F - 46.4 °F 93% 29.57 in 5.0 mi North 21.9 mph 28.8 mph 0.17 in Rain Light Rain
11:13 AM 48.2 °F - 46.4 °F 93% 29.59 in 5.0 mi North 23.0 mph - 0.05 in Rain Rain
11:15 AM 48.2 °F - 46.4 °F 93% 29.59 in 5.0 mi North 20.7 mph 25.3 mph 0.06 in Rain Rain
11:33 AM 48.2 °F - 46.4 °F 93% 29.60 in 5.0 mi NNW 15.0 mph 25.3 mph 0.13 in Rain Light Rain
11:35 AM 46.4 °F 39.5 °F 44.6 °F 93% 29.60 in 5.0 mi NNW 17.3 mph 25.3 mph 0.13 in Rain Rain
11:55 AM 48.2 °F - 46.4 °F 93% 29.62 in 10.0 mi NNW 20.7 mph 29.9 mph 0.15 in Rain Light Rain
12:13 PM 48.2 °F - 46.4 °F 93% 29.62 in 10.0 mi NNW 18.4 mph 29.9 mph N/A   Overcast
12:15 PM 46.4 °F 39.2 °F 44.6 °F 93% 29.62 in 10.0 mi NNW 18.4 mph 29.9 mph N/A   Overcast
12:33 PM 48.2 °F - 46.4 °F 93% 29.64 in 10.0 mi NNW 24.2 mph 32.2 mph N/A   Overcast
12:35 PM 46.4 °F 38.3 °F 44.6 °F 93% 29.64 in 10.0 mi NNW 23.0 mph 32.2 mph N/A   Overcast
12:53 PM 48.2 °F - 46.4 °F 93% 29.65 in 10.0 mi NNW 19.6 mph 28.8 mph N/A   Overcast
12:55 PM 46.4 °F 38.1 °F 44.6 °F 93% 29.65 in 10.0 mi NNW 24.2 mph 28.8 mph N/A   Overcast
1:13 PM 48.2 °F - 46.4 °F 93% 29.66 in 10.0 mi NNW 20.7 mph 28.8 mph N/A   Overcast
1:15 PM 46.4 °F 38.5 °F 44.6 °F 93% 29.66 in 10.0 mi NNW 21.9 mph 31.1 mph N/A   Overcast
1:33 PM 48.2 °F - 46.4 °F 93% 29.66 in 10.0 mi NNW 17.3 mph 26.5 mph N/A   Overcast
1:35 PM 46.4 °F 39.0 °F 44.6 °F 93% 29.67 in 10.0 mi NNW 19.6 mph 27.6 mph N/A   Overcast
1:53 PM 48.2 °F - 46.4 °F 93% 29.67 in 10.0 mi NNW 20.7 mph 27.6 mph N/A   Overcast
1:55 PM 46.4 °F 38.7 °F 44.6 °F 93% 29.67 in 10.0 mi NNW 20.7 mph 27.6 mph N/A   Overcast
2:13 PM 48.2 °F - 44.6 °F 87% 29.68 in 10.0 mi NNW 17.3 mph 25.3 mph N/A   Overcast
2:15 PM 46.4 °F 40.7 °F 44.6 °F 93% 29.68 in 10.0 mi NNW 12.7 mph 25.3 mph N/A   Overcast
2:33 PM 48.2 °F - 44.6 °F 87% 29.69 in 10.0 mi NNW 17.3 mph 24.2 mph N/A   Overcast
2:35 PM 46.4 °F 39.2 °F 44.6 °F 93% 29.69 in 10.0 mi NNW 18.4 mph 24.2 mph N/A   Mostly Cloudy
2:53 PM 48.2 °F - 44.6 °F 87% 29.70 in 10.0 mi NNW 17.3 mph 28.8 mph N/A   Mostly Cloudy
2:55 PM 46.4 °F 39.8 °F 42.8 °F 87% 29.70 in 10.0 mi NNW 16.1 mph 27.6 mph N/A   Mostly Cloudy
3:13 PM 48.2 °F - 44.6 °F 87% 29.71 in 10.0 mi NW 18.4 mph 25.3 mph N/A   Mostly Cloudy
3:15 PM 46.4 °F 39.0 °F 42.8 °F 87% 29.71 in 10.0 mi NW 19.6 mph 25.3 mph N/A   Mostly Cloudy
3:33 PM 48.2 °F - 42.8 °F 82% 29.72 in 10.0 mi NNW 19.6 mph 24.2 mph N/A   Scattered Clouds
3:35 PM 46.4 °F 39.2 °F 42.8 °F 87% 29.72 in 10.0 mi NNW 18.4 mph 24.2 mph N/A   Scattered Clouds
3:54 PM 48.2 °F - 42.8 °F 82% 29.74 in 10.0 mi NNW 16.1 mph 20.7 mph N/A   Scattered Clouds
3:55 PM 46.4 °F 39.8 °F 42.8 °F 87% 29.74 in 10.0 mi NNW 16.1 mph 20.7 mph N/A   Scattered Clouds
4:13 PM 48.2 °F - 42.8 °F 82% 29.75 in 10.0 mi NNW 13.8 mph 26.5 mph N/A   Clear
4:15 PM 46.4 °F 40.4 °F 41.0 °F 81% 29.75 in 10.0 mi NNW 13.8 mph 25.3 mph N/A   Clear
4:33 PM 48.2 °F - 42.8 °F 82% 29.77 in 10.0 mi NNW 15.0 mph 19.6 mph N/A   Clear
4:35 PM 46.4 °F 40.4 °F 41.0 °F 81% 29.77 in 10.0 mi NNW 13.8 mph 19.6 mph N/A   Clear
4:55 PM 46.4 °F 40.4 °F 41.0 °F 81% 29.77 in 10.0 mi NNW 13.8 mph 19.6 mph N/A   Clear
5:14 PM 48.2 °F - 42.8 °F 82% 29.78 in 10.0 mi NNW 11.5 mph 18.4 mph N/A   Clear
5:15 PM 46.4 °F 41.1 °F 41.0 °F 81% 29.78 in 10.0 mi NNW 11.5 mph 18.4 mph N/A   Clear
5:34 PM 48.2 °F - 41.0 °F 76% 29.79 in 10.0 mi NNW 9.2 mph 16.1 mph N/A   Clear
5:35 PM 48.2 °F - 41.0 °F 76% 29.79 in 10.0 mi NNW 9.2 mph 16.1 mph N/A   Clear
5:53 PM 46.4 °F 42.9 °F 41.0 °F 81% 29.79 in 10.0 mi NNW 6.9 mph - N/A   Clear
5:55 PM 46.4 °F 42.9 °F 41.0 °F 81% 29.79 in 10.0 mi NNW 6.9 mph - N/A   Clear
6:13 PM 46.4 °F 44.3 °F 41.0 °F 81% 29.81 in 10.0 mi NNW 4.6 mph - N/A   Clear
6:33 PM 46.4 °F 45.2 °F 41.0 °F 81% 29.81 in 10.0 mi North 3.5 mph - N/A   Clear
6:35 PM 44.6 °F 43.1 °F 41.0 °F 87% 29.81 in 10.0 mi North 3.5 mph - N/A   Clear
6:53 PM 44.6 °F - 41.0 °F 87% 29.82 in 10.0 mi Calm Calm - N/A   Clear
6:55 PM 44.6 °F - 41.0 °F 87% 29.82 in 10.0 mi Calm Calm - N/A   Clear
7:14 PM 42.8 °F - 39.2 °F 87% 29.83 in 10.0 mi Calm Calm - N/A   Clear
7:15 PM 42.8 °F - 39.2 °F 87% 29.83 in 10.0 mi Calm Calm - N/A   Clear
7:33 PM 41.0 °F - 37.4 °F 87% 29.84 in 10.0 mi Calm Calm - N/A   Clear
7:35 PM 41.0 °F - 37.4 °F 87% 29.84 in 10.0 mi Calm Calm - N/A   Clear
7:53 PM 39.2 °F - 37.4 °F 93% 29.84 in 7.0 mi Calm Calm - N/A   Clear
7:55 PM 39.2 °F - 35.6 °F 87% 29.84 in 7.0 mi Calm Calm - N/A   Clear
8:13 PM 39.2 °F - 37.4 °F 93% 29.85 in 7.0 mi Calm Calm - N/A   Clear
8:15 PM 39.2 °F - 37.4 °F 93% 29.84 in 5.0 mi Calm Calm - N/A   Clear
8:33 PM 39.2 °F - 37.4 °F 93% 29.85 in 7.0 mi Calm Calm - N/A   Clear
8:35 PM 37.4 °F - 35.6 °F 93% 29.85 in 7.0 mi Calm Calm - N/A   Clear
8:55 PM 39.2 °F 37.0 °F 37.4 °F 93% 29.85 in 4.0 mi WSW 3.5 mph - N/A   Clear
9:13 PM 39.2 °F 37.0 °F 39.2 °F 100% 29.85 in 4.0 mi WSW 3.5 mph - N/A   Clear
9:15 PM 39.2 °F - 37.4 °F 93% 29.85 in 4.0 mi Calm Calm - N/A   Clear
9:33 PM 39.2 °F 35.9 °F 37.4 °F 93% 29.86 in 4.0 mi West 4.6 mph - N/A   Clear
9:35 PM 39.2 °F 35.9 °F 37.4 °F 93% 29.86 in 4.0 mi West 4.6 mph - N/A   Clear
9:53 PM 39.2 °F 35.0 °F 37.4 °F 93% 29.86 in 5.0 mi West 5.8 mph - N/A   Clear
9:55 PM 39.2 °F 35.9 °F 37.4 °F 93% 29.86 in 5.0 mi West 4.6 mph - N/A   Clear
10:13 PM 39.2 °F 35.0 °F 37.4 °F 93% 29.87 in 4.0 mi West 5.8 mph - N/A   Clear
10:15 PM 39.2 °F 35.0 °F 37.4 °F 93% 29.87 in 4.0 mi West 5.8 mph - N/A   Clear
10:33 PM 39.2 °F 35.9 °F 37.4 °F 93% 29.87 in 7.0 mi West 4.6 mph - N/A   Clear
10:35 PM 37.4 °F 34.9 °F 37.4 °F 100% 29.87 in 7.0 mi West 3.5 mph - N/A   Clear
10:53 PM 39.2 °F 35.9 °F 37.4 °F 93% 29.88 in 10.0 mi West 4.6 mph - N/A   Clear
10:55 PM 37.4 °F 33.8 °F 35.6 °F 93% 29.88 in 10.0 mi West 4.6 mph - N/A   Clear
11:14 PM 39.2 °F 35.0 °F 37.4 °F 93% 29.88 in 10.0 mi West 5.8 mph - N/A   Clear
11:15 PM 37.4 °F 32.8 °F 35.6 °F 93% 29.88 in 10.0 mi West 5.8 mph - N/A   Clear
11:33 PM 39.2 °F 35.9 °F 35.6 °F 87% 29.88 in 10.0 mi WNW 4.6 mph - N/A   Clear
11:35 PM 39.2 °F 35.0 °F 35.6 °F 87% 29.88 in 10.0 mi WNW 5.8 mph - N/A   Clear